Tracking 18033 objects as of 23-March-2017
HD Live streaming from Space Station
objects crossing your sky now

COSMOS 785

Track COSMOS 785 now!
10-day predictions
COSMOS 785 is classified as:


NORAD ID: 8473
Int'l Code: 1975-116A
Perigee: 908.4 km
Apogee: 1,018.3 km
Inclination: 65.1 °
Period: 104.2 minutes
Semi major axis: 7334 km
RCS: 3.5974 m2 (large)
Launch date: December 12, 1975
Source: Commonwealth of Independent States (former USSR) (CIS)
Launch site: TYURATAM MISSILE AND SPACE COMPLEX (TTMTR)
Your satellite tracking list
Your tracking list is empty





NASA's NSSDC Master Catalog

Two Line Element Set (TLE):
1  8473U 75116A   17080.95452079 -.00000082 +00000-0 +49639-5 0  9996
2  8473 065.0785 042.5561 0074956 013.4112 346.8917 13.82168035082680
Source of the keplerian elements: AFSPC